Location: Valencia
(39.4696°N, 0.3770°W)
Time: 10:41:23
(UTC+02:00)

ISS - Visible Passes

Search period start: 29 July 2014 00:00
Search period end: 08 August 2014 00:00
Orbit: 411 x 419 km, 51.6° (Epoch: 29 July)

Date Brightness Start Highest point End Pass type
(mag) Time Alt. Az. Time Alt. Az. Time Alt. Az.
29 Jul -0.1 03:32:49 12° NNW 03:33:27 12° N 03:34:50 10° NNE visible
29 Jul -0.1 05:09:58 10° NNW 05:11:22 12° N 05:12:45 10° NE visible
30 Jul 0.2 02:45:38 12° N 02:45:38 12° N 02:46:16 10° NNE visible
30 Jul 0.1 04:21:21 10° N 04:22:14 11° N 04:23:08 10° NNE visible
30 Jul -0.7 05:57:10 10° NNW 05:59:55 23° NNE 06:02:41 10° E visible
31 Jul 0.2 03:32:26 10° NNW 03:33:05 10° N 03:33:45 10° N visible
31 Jul -0.2 05:08:35 10° NNW 05:10:54 17° NNE 05:13:14 10° ENE visible
01 Aug 0.3 02:44:17 11° N 02:44:17 11° N 02:44:53 10° N visible
01 Aug 0.0 04:20:00 10° NNW 04:21:50 14° NNE 04:23:39 10° NE visible
01 Aug -2.2 05:55:54 10° NW 05:59:11 48° NNE 06:02:27 10° ESE visible
02 Aug 0.2 03:31:26 10° NNW 03:32:42 12° N 03:33:59 10° NNE visible
02 Aug -1.3 05:07:13 10° NW 05:10:15 30° NNE 05:13:17 10° E visible
02 Aug -1.5 21:50:14 10° SSE 21:52:03 14° SE 21:53:52 10° E visible
02 Aug -2.8 23:25:07 10° WSW 23:28:24 59° NW 23:28:33 58° NNW visible
03 Aug 0.4 02:44:19 10° NNE 02:44:19 10° NNE 02:44:20 10° NNE visible
03 Aug -0.6 04:18:35 10° NNW 04:21:16 22° NNE 04:23:56 10° ENE visible
03 Aug -3.3 05:54:53 10° WNW 05:58:12 59° SW 06:01:30 10° SE visible
03 Aug -3.4 22:36:15 10° SW 22:39:34 77° SE 22:42:54 10° NE visible
04 Aug -0.5 00:14:08 10° WNW 00:16:36 19° NNW 00:18:05 15° N visible
04 Aug -0.1 03:33:26 14° NE 03:33:26 14° NE 03:34:26 10° ENE visible
04 Aug -3.2 05:06:36 14° NW 05:09:23 76° NE 05:12:44 10° ESE visible
04 Aug -2.8 21:47:39 10° SSW 21:50:46 40° SE 21:53:56 10° ENE visible
04 Aug -1.0 23:24:43 10° W 23:27:34 26° NNW 23:30:27 10° NNE visible
05 Aug 0.3 01:04:10 10° NNW 01:05:11 11° N 01:05:11 11° N visible
05 Aug -1.8 05:57:37 19° SSW 05:57:37 19° SSW 05:59:30 10° S visible
05 Aug -1.8 22:35:27 10° WSW 22:38:36 39° NNW 22:41:46 10° NE visible
06 Aug 0.0 00:14:29 10° NW 00:16:02 13° NNW 00:17:36 10° NNE visible
06 Aug -2.8 21:46:23 10° WSW 21:49:41 67° NW 21:53:00 10° NE visible
06 Aug -0.1 23:24:49 10° WNW 23:26:54 15° NNW 23:29:00 10° NNE visible
07 Aug 0.4 01:04:04 10° N 01:04:10 10° N 01:04:10 10° N visible
07 Aug -0.5 22:35:16 10° WNW 22:37:49 20° NNW 22:40:22 10° NNE visible
